GFSWCAN_700_rhum_057.txt.gz
RH
97 98 98 93 68 55 66 93 89 96 97 97 96 85 66 76 96 97 99 99 100 96 84 87 71 51 40 54 78 76 63 58 70 65 58 46 37 38 48 56 57 56 54 62 72 64 56 43 49 50 48 44 45 48
95 75 60 77 88 97 97 96 96 96 94 82 74 63 59 58 91 98 98 99 96 100 85 78 73 60 62 65 81 74 59 51 74 60 51 40 33 34 33 48 58 55 48 43 47 48 52 56 50 44 39 34 34 34
73 89 95 97 94 93 84 81 78 72 65 70 66 48 56 49 88 93 99 99 98 99 87 79 79 62 76 74 77 72 73 65 62 54 42 31 29 31 35 34 44 55 56 67 67 65 61 60 55 53 46 41 36 34
95 89 86 70 61 54 51 54 62 65 70 72 61 57 68 45 93 95 99 100 99 88 94 77 92 75 71 76 72 72 69 78 49 42 34 33 37 40 35 32 32 57 63 62 61 58 56 59 59 57 54 50 41 38
66 49 32 28 29 33 41 50 69 65 65 70 71 66 64 51 95 96 99 100 99 98 99 99 93 81 69 75 76 73 59 98 56 48 43 44 42 38 36 44 56 60 61 60 58 52 51 56 60 57 55 50 46 47
30 28 27 29 33 31 32 36 48 67 67 63 69 73 43 79 98 99 99 99 93 96 99 100 99 80 72 71 74 75 66 84 87 72 58 47 44 43 49 59 54 56 57 48 49 47 54 59 61 56 53 50 51 60
33 32 36 36 36 44 38 32 47 50 61 82 71 51 52 86 94 98 98 99 98 95 89 65 68 72 72 72 68 69 66 68 73 67 61 54 48 54 61 61 61 62 60 56 57 60 61 51 43 46 52 57 62 69
67 56 48 48 44 39 41 50 56 60 89 100 95 79 78 98 97 99 99 99 91 87 99 76 72 52 53 48 47 47 50 47 47 52 54 60 59 63 72 69 69 69 64 58 57 52 43 44 48 54 60 65 75 81
97 96 96 95 95 93 91 94 96 98 100 100 99 98 98 99 97 96 98 100 78 94 83 70 63 86 63 60 54 52 53 52 54 60 63 68 68 73 73 74 73 70 63 57 50 45 46 52 59 67 74 78 77 80
96 98 98 99 98 100 100 100 100 98 99 99 98 98 98 97 98 98 99 100 95 84 75 68 67 68 70 74 76 76 68 78 71 70 69 68 68 67 75 76 73 63 54 43 44 51 59 69 79 78 83 85 88 80
98 97 93 97 98 99 98 99 96 97 99 98 97 98 98 98 99 100 99 90 83 84 80 74 69 65 73 87 99 85 84 74 78 74 79 82 85 83 85 83 74 67 58 52 54 58 66 71 71 84 91 89 86 88
98 99 99 97 95 94 98 99 88 94 97 98 95 92 94 98 98 84 87 86 84 74 66 66 67 74 97 98 99 98 92 75 75 77 92 78 73 72 68 65 66 63 58 58 60 62 65 72 97 98 94 94 93 88
99 98 89 99 100 99 98 98 98 99 98 98 88 98 98 98 94 93 89 78 70 68 60 61 89 99 99 100 99 97 93 93 81 62 64 57 54 48 38 37 43 51 59 58 63 82 96 100 97 94 96 90 84 76
99 99 98 99 100 99 99 98 98 97 99 98 97 95 90 92 86 74 70 61 53 56 57 68 87 92 87 89 95 93 87 76 83 73 49 40 35 38 45 50 54 59 65 83 93 94 94 95 95 91 87 82 73 62
97 98 99 99 99 98 99 100 100 100 99 92 89 90 90 83 72 67 65 61 54 48 53 65 74 66 85 61 53 55 65 70 69 68 48 49 53 54 53 58 68 76 86 89 90 92 93 93 91 85 79 73 72 73
80 92 97 97 97 100 98 99 98 100 96 83 71 76 76 69 69 64 64 62 62 52 54 66 63 58 55 56 58 59 65 62 61 55 60 55 52 53 67 84 89 90 91 93 95 96 96 94 88 88 84 77 64 46
91 77 79 91 95 97 98 98 98 97 97 90 77 84 78 80 76 71 67 66 62 72 84 65 64 62 66 65 66 67 69 68 70 69 69 75 76 79 90 93 96 96 96 96 97 98 98 98 96 90 81 69 66 56
82 86 85 88 89 93 94 98 97 96 96 96 96 92 89 87 87 85 87 83 74 83 80 76 74 74 81 81 79 78 80 80 85 85 88 89 93 96 97 97 97 96 96 98 98 97 98 99 98 94 94 90 79 48
85 91 90 87 88 91 98 98 97 95 97 97 97 97 98 97 97 98 98 97 96 95 93 95 96 96 96 95 94 91 90 94 96 98 97 96 97 97 97 96 97 97 98 98 98 99 99 98 98 98 92 71 52 46
87 89 84 84 92 95 93 96 97 96 97 97 97 97 96 97 99 97 96 97 97 97 97 96 96 97 97 97 97 97 97 97 96 96 96 96 98 98 98 98 98 98 98 99 100 99 99 98 96 88 74 58 65 70
27 25 36 64 82 89 85 96 96 96 97 95 97 96 97 98 98 98 97 97 97 96 95 96 96 96 96 96 96 96 96 96 96 98 100 100 100 100 100 99 99 99 98 98 98 98 94 90 86 69 62 79 80 79
7 16 19 36 80 88 94 96 95 96 96 96 96 96 96 96 96 96 96 96 95 96 96 96 96 96 96 96 96 96 93 85 88 92 96 94 91 92 97 99 100 99 96 93 91 96 95 84 78 86 93 92 91 70
5 5 6 8 28 76 98 96 96 96 97 97 96 96 96 96 96 96 94 96 96 96 96 96 96 97 98 100 97 92 86 82 79 75 71 71 76 75 76 79 83 88 94 97 96 92 91 97 99 98 96 88 48 32
4 4 4 5 18 52 80 77 76 87 95 96 96 96 97 96 98 95 93 99 100 100 98 96 98 98 99 98 100 100 100 99 96 94 96 97 97 98 98 97 97 98 98 98 98 98 100 99 99 94 55 36 32 21
4 8 8 11 27 32 37 43 51 74 100 98 89 91 97 97 96 97 97 100 100 100 99 99 99 100 100 98 98 98 98 98 98 98 98 98 98 98 97 97 97 98 98 98 98 98 97 91 54 40 36 24 17 16
6 12 17 23 29 26 31 32 45 63 62 59 69 78 84 78 79 93 98 100 100 100 100 100 98 97 98 97 98 97 98 98 97 97 97 96 96 96 96 98 100 98 99 98 96 76 48 44 36 25 19 18 19 20
29 41 34 31 39 37 52 61 67 61 74 100 99 100 98 77 89 97 96 98 97 99 100 100 99 98 97 96 96 96 97 98 98 98 98 98 98 99 98 97 96 87 68 52 49 44 32 24 22 22 24 27 31 33
55 67 40 46 38 45 49 54 57 70 86 91 91 91 90 91 97 97 94 93 94 95 96 97 96 97 99 100 100 99 98 98 98 98 99 100 99 94 75 59 59 58 52 36 26 24 23 25 29 32 34 35 37 40
70 71 66 58 58 57 63 68 78 82 81 85 83 85 88 86 87 87 92 95 96 96 96 96 97 98 100 100 100 99 99 99 98 91 72 55 55 58 53 46 36 28 23 22 23 26 28 29 30 31 32 33 34 37
85 82 75 77 67 82 88 89 90 91 90 88 84 84 91 94 94 95 96 97 97 98 99 99 98 100 100 100 97 88 76 68 64 66 65 59 47 37 30 26 24 24 23 24 24 25 24 23 23 24 26 27 29 30
76 74 74 75 79 94 95 93 90 88 92 93 92 92 94 95 96 100 100 94 82 76 74 69 66 64 64 68 71 72 70 67 57 48 40 32 26 21 19 18 17 17 18 19 22 25 29 33 36 39 41 42 43 44
48 60 59 71 81 89 86 86 76 73 67 60 53 48 44 44 45 44 47 52 53 55 59 63 63 61 55 53 50 47 40 33 27 22 19 17 16 16 18 22 28 35 40 43 46 49 52 55 58 62 64 65 64 61
26 30 39 48 67 68 59 57 50 46 44 45 46 46 45 45 47 49 48 49 54 57 54 50 48 46 41 33 27 21 17 15 14 14 17 23 29 34 36 38 40 41 44 47 50 53 58 65 71 75 79 80 79 73

GFSWCAN_700_rhum_063.txt.gz
RH
86 55 37 41 45 81 96 97 96 96 96 90 56 60 97 90 97 97 90 94 92 98 75 73 76 73 56 56 33 29 49 40 48 69 71 67 63 54 50 51 53 51 61 62 69 74 71 46 55 50 41 36 38 41
95 97 89 81 96 97 97 96 97 96 95 62 66 81 90 92 95 96 81 97 97 98 86 90 80 59 42 49 45 48 36 35 46 74 71 70 61 66 57 52 50 54 49 47 42 35 31 27 31 37 38 39 44 43
95 96 96 98 97 97 97 96 96 92 65 68 77 75 93 87 96 89 73 96 98 98 75 92 79 84 49 36 59 69 61 48 46 66 70 67 67 65 61 54 48 44 41 35 39 37 36 36 37 40 40 41 42 44
95 95 96 96 96 96 96 95 83 63 64 68 82 79 83 91 95 98 80 89 98 94 96 60 80 83 64 57 64 65 63 52 65 67 67 66 62 62 63 54 64 48 44 45 41 36 31 40 47 51 45 43 43 47
93 94 95 96 96 97 94 80 70 65 70 77 86 79 62 92 96 97 71 82 96 98 99 98 94 86 88 75 76 75 68 73 59 66 68 70 78 69 71 63 61 55 41 36 25 22 30 42 50 52 50 51 56 57
62 56 58 69 92 91 76 59 57 57 69 75 70 64 93 97 97 68 64 94 89 92 98 98 96 78 79 80 77 70 93 72 64 78 98 88 72 64 58 58 57 53 37 31 30 31 40 58 61 56 55 58 59 61
99 98 97 98 98 95 95 98 97 97 92 66 71 94 97 79 55 66 84 85 94 98 98 97 91 86 77 80 80 76 81 89 85 88 96 90 81 69 61 55 49 39 34 34 34 44 60 53 49 54 60 64 66 69
89 90 94 97 97 97 96 97 97 96 96 98 97 98 92 87 92 93 75 75 92 98 98 99 100 91 83 93 97 83 88 91 99 97 83 90 99 83 72 66 52 42 39 40 43 45 54 57 60 62 64 67 70 74
55 64 76 86 91 91 91 93 97 98 100 100 98 93 94 96 96 99 87 81 100 100 99 88 93 99 89 81 93 90 83 87 83 96 96 98 90 90 71 71 83 58 54 50 54 62 63 65 67 70 74 76 68 64
30 31 36 54 66 69 84 88 87 86 91 87 76 83 86 98 94 87 97 97 98 96 98 86 75 98 99 100 100 100 97 97 97 82 80 90 72 73 73 76 83 69 50 51 57 63 65 77 75 75 75 70 73 86
36 35 35 28 35 43 52 56 57 52 48 48 64 94 94 98 84 86 97 98 98 98 98 76 97 99 99 100 93 89 90 85 76 74 73 64 53 48 51 70 66 63 62 64 70 68 64 87 93 94 80 88 95 99
48 43 46 29 26 31 33 40 35 43 74 96 98 91 95 93 90 95 91 98 99 90 84 99 99 94 99 100 98 94 80 72 66 63 68 75 57 51 51 50 55 61 73 79 90 99 98 100 97 96 98 100 100 100
98 49 33 37 42 45 30 31 63 96 97 98 99 96 93 96 94 94 93 98 94 80 81 77 85 87 92 85 72 72 76 79 77 76 98 67 58 54 51 49 57 73 91 100 100 100 98 99 100 100 100 100 100 99
49 70 56 44 43 52 80 98 97 97 98 99 90 72 93 81 94 97 89 73 66 68 71 73 75 76 78 80 80 82 96 97 100 95 72 64 63 65 62 79 100 100 100 99 99 98 100 100 100 100 100 99 98 96
91 96 97 97 96 98 96 98 98 98 100 96 93 76 96 83 93 79 63 61 64 70 81 87 82 76 76 88 88 88 92 94 97 87 72 65 61 68 86 98 97 97 98 97 96 99 100 100 100 99 97 96 95 96
89 100 100 100 98 98 97 99 97 95 87 95 97 97 99 89 76 66 60 61 60 62 74 87 84 91 88 74 81 84 74 72 62 56 61 62 62 69 82 86 83 92 97 95 98 99 98 98 97 96 96 96 95 95
94 96 98 98 99 99 98 98 98 99 94 93 98 95 90 87 75 63 57 58 64 93 97 78 74 70 75 70 72 72 79 71 66 66 79 82 79 84 93 96 96 97 97 97 99 97 96 96 96 96 95 95 95 96
98 96 97 98 98 98 100 100 98 94 88 92 98 89 85 75 72 70 66 68 92 100 90 69 72 83 86 91 90 84 85 86 82 86 87 92 98 97 97 97 98 97 96 96 96 96 96 96 96 96 96 95 96 97
98 98 98 96 97 98 100 100 98 96 99 100 100 100 94 94 97 92 84 85 90 88 83 80 91 86 86 90 92 93 95 96 95 96 97 96 96 96 97 96 96 97 96 96 96 96 96 96 96 96 97 98 98 97
85 93 97 98 98 99 100 98 98 96 98 100 99 98 99 99 98 99 97 96 97 95 97 97 96 99 97 97 96 97 97 97 97 96 97 97 97 97 96 96 96 96 96 96 96 96 96 97 97 96 97 97 97 97
64 86 90 98 97 97 96 97 96 95 100 100 100 100 96 98 98 97 98 98 97 97 95 96 96 96 96 96 96 97 96 96 96 97 97 96 96 96 96 96 96 96 96 96 96 96 96 97 98 99 100 99 99 98
21 38 80 95 98 95 96 97 95 96 96 97 100 99 98 98 96 96 96 97 95 95 94 96 96 96 96 96 96 96 96 96 96 96 96 96 96 96 96 96 96 94 94 96 96 97 99 99 98 98 99 99 99 98
5 8 46 82 88 95 97 96 95 96 96 97 97 95 96 96 96 95 95 96 96 96 96 96 96 96 96 95 96 96 96 96 96 94 92 90 88 84 83 86 90 94 95 95 97 98 98 98 99 99 98 99 98 99
4 4 4 18 69 90 96 95 95 95 96 96 96 96 96 95 96 96 96 96 97 96 96 96 96 96 96 96 96 96 95 95 95 95 95 96 97 99 100 100 99 98 98 99 100 100 100 100 99 99 99 99 99 100
4 7 10 61 81 91 98 96 97 96 95 95 94 96 96 96 95 96 96 96 96 96 96 96 96 96 96 96 96 95 95 95 94 93 94 96 97 96 96 97 97 98 97 97 96 97 98 99 100 99 94 78 54 39
4 8 14 22 48 59 92 97 97 97 97 96 96 95 95 96 95 96 96 96 96 96 96 96 96 96 95 95 95 95 95 94 93 94 95 95 96 96 95 94 93 94 96 96 96 92 84 68 54 46 39 26 21 19
14 30 27 25 29 34 59 87 97 95 92 96 98 96 91 83 89 99 98 98 97 97 97 96 94 92 91 90 88 87 86 85 85 86 87 88 90 90 92 91 87 78 65 56 50 43 34 24 18 16 15 16 17 19
47 79 48 53 57 61 61 69 58 58 73 90 90 69 69 68 77 96 100 98 97 95 92 90 90 89 88 86 85 84 85 86 87 87 86 78 67 56 51 50 44 33 23 18 14 12 13 14 19 25 29 33 35 39
66 64 64 65 56 50 53 59 74 77 77 75 67 60 65 76 88 93 95 96 96 95 94 92 92 91 90 89 85 76 64 54 52 50 49 43 34 25 16 12 10 10 12 17 24 29 32 36 38 40 43 45 47 50
71 73 66 67 54 73 83 91 86 79 73 69 70 70 74 81 86 92 97 98 97 96 94 93 89 73 54 47 47 46 41 32 25 20 15 11 10 10 13 20 26 31 34 37 38 39 41 42 44 46 48 50 53 57
84 83 72 70 75 96 96 97 91 89 89 82 88 98 88 85 89 89 90 91 91 80 64 53 50 48 42 38 32 27 19 15 11 10 10 15 23 29 32 33 34 35 36 38 40 42 44 46 48 51 54 59 65 72
58 67 75 68 80 90 88 70 62 65 61 57 64 66 68 69 69 63 60 53 54 56 52 49 47 40 34 27 17 13 10 10 14 20 29 32 32 32 33 35 38 40 43 45 46 46 47 48 48 50 52 55 60 66
20 27 40 48 49 48 44 43 46 46 46 45 47 48 49 50 52 50 50 47 49 46 41 38 33 22 16 12 10 12 17 25 31 32 30 30 33 35 38 41 44 45 43 39 37 34 31 32 37 42 45 49 54 60

GFSWCAN_700_rhum_069.txt.gz
RH
66 67 68 94 90 89 98 98 86 89 91 96 96 96 97 96 93 89 72 65 93 89 81 74 89 97 92 85 67 47 47 64 77 72 85 78 71 71 66 71 57 47 47 53 52 51 53 44 45 44 32 35 21 32
72 75 85 71 69 97 96 79 73 91 96 97 96 96 97 95 94 84 74 68 78 97 66 96 94 80 98 69 64 54 16 14 32 62 70 71 64 63 57 56 66 63 47 42 43 45 42 42 40 40 34 33 20 29
96 91 87 89 88 89 89 86 92 95 97 96 96 96 97 94 94 83 83 68 70 90 66 89 97 90 100 73 51 35 23 28 26 31 48 48 58 44 70 61 54 52 57 51 48 44 43 43 43 43 45 37 27 24
76 93 95 93 91 90 90 93 95 96 96 96 97 96 96 96 90 89 89 79 69 82 95 59 98 96 89 95 55 25 42 32 31 35 41 50 48 48 55 54 61 57 52 49 42 52 49 50 49 46 44 38 27 29
96 84 80 92 96 96 96 96 96 96 97 96 96 96 96 97 100 97 96 76 71 91 96 88 99 98 86 100 100 80 57 69 78 86 68 67 64 62 58 63 65 59 55 46 51 46 46 53 59 62 51 34 28 37
88 96 96 96 95 95 97 96 95 96 96 96 96 96 96 97 94 93 98 95 92 87 98 94 98 99 90 79 79 66 71 80 91 88 88 87 77 69 69 74 67 67 65 63 60 58 59 59 66 56 51 35 35 45
94 100 98 95 94 97 96 96 96 96 96 96 96 96 94 88 96 99 93 75 91 99 94 97 97 68 89 96 90 84 77 96 94 91 99 94 94 87 79 72 69 62 62 59 50 61 60 54 59 52 52 46 49 52
96 96 96 97 97 96 97 97 97 97 97 96 95 93 96 98 94 93 79 62 68 98 95 96 98 98 99 100 100 98 98 100 91 94 97 94 82 81 85 76 75 69 64 57 64 66 61 58 60 51 53 50 58 61
75 92 95 95 96 97 96 91 82 93 91 94 97 97 98 98 96 91 83 87 95 94 96 100 100 98 96 99 100 95 88 90 82 85 89 94 78 94 91 81 81 73 62 54 74 63 74 59 59 64 61 59 59 60
86 77 63 62 70 67 68 83 94 96 88 89 88 99 98 82 96 97 99 98 100 94 93 86 99 99 99 98 98 99 100 99 99 98 92 100 94 80 79 70 64 73 78 75 71 71 74 69 76 75 78 89 92 96
87 88 88 86 75 62 56 66 79 85 91 98 99 97 78 71 75 76 87 96 97 88 89 91 95 98 99 99 100 96 98 99 100 96 96 93 96 99 89 83 75 70 77 84 85 83 90 91 88 87 91 88 95 99
100 93 95 84 78 89 97 94 93 93 97 88 89 90 81 77 94 89 98 68 68 71 86 74 86 96 93 95 86 91 96 99 99 83 99 98 88 80 78 77 73 72 80 88 86 84 88 90 84 86 96 100 100 100
75 95 91 91 99 99 99 98 99 91 77 86 94 96 96 96 96 98 100 71 78 89 80 68 59 62 83 100 88 96 99 99 97 100 100 92 80 77 75 68 68 67 72 77 87 91 99 99 100 100 99 98 99 99
54 66 83 91 80 88 96 97 99 89 79 78 68 61 73 70 95 95 83 62 63 68 52 51 60 94 100 95 85 98 97 99 94 89 93 84 78 70 64 64 67 77 86 96 100 100 100 96 96 98 98 98 98 97
24 36 48 59 85 91 79 69 94 96 94 96 90 80 92 99 86 81 82 68 65 87 99 100 99 100 100 97 98 96 99 100 100 97 84 80 75 74 74 87 95 99 99 98 99 99 99 98 97 97 98 97 96 96
24 24 28 27 41 51 72 92 94 95 98 98 98 97 100 100 89 88 71 78 90 98 99 98 99 98 98 96 87 86 94 100 100 100 90 86 91 99 100 98 98 99 98 98 98 97 98 97 96 97 97 96 96 96
35 22 33 48 51 77 82 95 97 95 98 97 97 100 98 96 98 98 96 96 98 98 98 98 97 97 95 92 99 100 100 100 100 100 98 100 100 100 99 100 100 99 98 97 97 95 96 96 96 96 96 96 96 95
94 94 92 92 95 94 96 95 95 95 98 97 96 97 99 97 98 97 98 98 98 98 98 95 86 98 100 100 100 100 100 100 100 100 100 100 99 100 100 100 100 100 100 98 96 96 96 96 96 96 96 96 96 96
97 98 97 96 96 96 97 97 97 98 99 98 97 97 97 97 98 100 99 98 99 98 91 89 83 83 91 100 100 100 100 100 100 100 100 99 98 98 98 97 97 97 95 93 94 95 95 95 95 95 95 96 96 96
97 96 97 97 97 97 96 97 97 97 96 96 96 97 98 98 100 100 98 98 98 97 95 95 92 96 96 97 98 98 98 97 97 98 96 96 97 97 96 95 94 94 94 94 95 95 95 95 95 95 95 95 95 96
97 97 96 96 97 97 96 96 96 96 97 95 97 98 97 100 100 100 100 99 98 97 96 95 95 95 95 95 95 95 96 96 96 97 96 96 95 96 96 96 96 95 95 95 95 94 94 92 90 91 93 94 96 98
76 94 97 97 97 96 96 98 95 96 95 96 96 97 98 98 96 96 97 97 96 96 95 96 98 97 96 96 96 96 95 96 96 96 96 96 96 96 95 95 94 93 91 89 89 91 92 92 91 91 92 94 95 96
10 33 47 79 95 95 97 96 95 96 94 97 97 96 97 96 96 96 95 97 96 96 96 96 96 96 96 96 97 97 97 97 96 95 95 96 95 94 93 92 93 94 96 95 94 93 92 90 90 89 89 90 88 83
5 7 24 63 82 93 95 95 95 94 96 95 95 94 95 94 96 95 95 96 96 96 96 97 96 96 96 97 96 95 95 96 96 95 95 95 95 95 96 97 97 96 95 93 89 85 82 80 75 64 47 30 18 13
6 10 29 48 78 88 94 95 93 93 95 96 94 96 96 95 94 96 96 97 97 97 97 96 97 96 96 96 96 96 96 96 96 96 95 95 94 94 92 89 85 81 78 74 66 52 33 20 14 12 12 16 23 28
6 9 18 46 77 87 91 95 97 94 94 92 94 95 96 95 95 96 97 97 97 97 96 96 96 96 96 96 96 96 95 96 96 94 88 84 81 77 73 69 59 44 28 20 16 13 11 14 20 23 24 26 29 33
10 25 27 34 67 86 93 96 96 98 95 92 93 96 94 95 94 97 96 97 97 97 97 97 97 96 96 96 96 96 94 86 80 77 73 68 55 38 28 22 18 14 11 11 16 21 22 22 23 25 28 28 28 26
41 77 60 60 72 92 97 100 98 96 95 94 96 95 95 95 94 96 96 97 97 97 97 97 97 97 97 95 90 85 81 77 69 47 31 26 22 19 16 11 10 14 20 21 20 19 20 21 22 24 24 20 18 18
62 58 56 64 68 68 70 71 70 79 90 97 96 93 86 81 92 98 98 98 98 98 98 98 99 99 96 91 86 74 46 36 32 25 21 17 12 10 12 18 21 21 18 16 17 18 20 21 22 21 19 19 20 23
65 66 60 57 45 66 71 75 74 70 66 63 59 53 51 73 96 99 99 98 99 100 100 100 100 99 91 65 44 39 32 26 21 16 11 10 14 20 22 24 20 18 18 18 19 20 20 21 21 22 22 23 24 27
74 76 68 68 76 92 90 86 81 77 77 78 89 89 85 90 99 100 100 100 100 100 100 100 88 60 50 44 37 30 22 15 11 9 13 22 23 24 25 20 18 18 18 19 20 22 23 24 26 26 27 27 28 30
41 62 69 66 74 76 70 74 79 87 92 98 98 100 100 100 100 100 100 100 100 99 74 59 53 48 40 33 22 15 10 9 12 22 26 25 25 27 22 20 20 20 20 21 22 23 24 26 29 31 32 33 33 34
18 21 24 30 36 40 42 44 44 46 50 54 70 76 85 94 92 84 82 69 64 59 54 50 44 36 24 15 11 10 12 20 27 27 25 27 30 28 24 23 24 23 22 22 23 25 26 28 30 34 38 41 40 39

GFSWCAN_700_rhum_072.txt.gz
RH
95 92 80 62 68 87 66 39 82 88 95 94 68 68 96 94 97 96 74 96 74 74 97 84 92 96 98 92 76 86 91 79 73 71 84 58 60 74 55 47 65 71 67 60 72 69 68 41 41 42 34 40 39 39
98 94 89 60 68 81 97 85 96 98 97 98 67 73 97 97 97 97 83 95 79 80 86 84 78 87 97 96 90 93 44 86 91 84 73 74 50 59 62 59 33 59 60 64 50 50 44 39 37 41 43 42 41 37
93 96 93 92 92 94 97 97 97 98 95 88 52 73 94 97 97 96 95 89 87 94 93 88 70 92 96 90 92 92 51 66 46 43 52 40 41 38 48 60 53 38 44 58 59 55 46 44 43 43 43 44 44 46
86 98 95 91 95 96 96 96 97 97 91 52 52 89 97 97 97 96 94 84 78 81 100 88 93 78 86 96 92 84 89 50 49 34 37 36 34 40 53 41 45 48 57 45 48 50 47 39 43 45 51 47 47 50
97 96 98 93 94 83 81 85 78 64 66 86 96 97 96 97 97 96 85 78 74 78 95 72 80 80 85 74 72 84 100 69 50 40 42 53 50 47 41 32 46 49 54 52 50 46 49 48 46 52 57 53 55 48
98 96 97 89 92 95 96 93 90 96 96 96 96 97 97 96 93 94 100 92 78 79 86 98 78 68 97 77 59 81 86 74 76 75 63 53 28 52 62 69 52 56 44 57 58 57 58 58 47 62 59 54 55 56
96 96 96 96 96 97 96 96 96 96 96 96 96 97 95 86 85 94 92 72 75 90 94 96 84 83 98 87 87 89 97 87 73 66 72 80 62 59 74 72 64 70 61 63 60 62 60 58 55 53 55 55 59 55
95 95 96 97 97 94 94 96 96 97 97 97 96 96 96 97 97 97 84 72 81 79 78 88 82 98 96 98 94 80 88 95 79 100 99 94 95 90 92 83 80 74 72 67 59 60 61 59 54 55 53 52 60 57
94 95 92 91 92 93 95 96 97 96 96 96 96 96 97 97 94 96 90 93 98 83 88 80 83 98 98 95 97 98 82 92 97 92 94 92 92 97 88 88 76 72 69 65 66 60 61 57 60 61 61 59 59 63
96 95 95 96 96 97 97 98 97 95 94 92 90 84 90 86 89 97 98 96 93 94 93 76 75 96 98 98 99 100 100 98 92 94 99 100 98 95 93 83 82 75 82 81 78 76 73 73 71 78 76 74 75 76
71 91 90 88 89 81 83 83 81 83 82 77 73 78 90 87 98 95 87 93 89 69 71 74 88 96 98 98 99 98 96 98 97 96 96 90 94 98 93 90 72 71 77 85 92 93 92 88 84 87 88 93 97 99
85 69 72 76 77 76 70 73 79 69 69 71 73 95 99 97 83 79 72 76 85 72 80 81 95 96 97 98 99 93 98 93 94 96 92 80 87 81 66 66 70 74 88 77 78 88 97 94 91 92 95 97 95 95
71 67 69 99 80 74 75 92 100 91 95 88 67 90 90 78 69 71 98 100 66 71 61 90 96 96 80 95 98 98 98 99 99 99 99 98 86 82 85 86 94 97 92 80 81 90 99 99 96 97 97 97 99 99
86 92 89 83 76 92 98 97 99 96 96 93 82 75 64 52 68 70 89 71 53 51 55 74 83 87 100 100 98 94 97 98 98 98 99 100 98 100 100 97 92 90 87 86 100 100 99 99 99 98 99 98 98 100
80 85 91 95 96 96 96 97 88 96 89 70 57 63 76 84 91 92 67 54 54 62 69 66 80 99 100 100 96 96 97 97 97 98 99 99 100 100 100 100 100 99 100 100 100 100 99 99 98 98 98 97 97 96
77 86 89 82 79 94 95 92 93 89 80 87 96 99 99 97 98 98 98 95 88 89 100 100 99 98 98 97 97 98 100 100 100 100 100 100 100 100 99 100 100 100 100 100 99 99 98 98 96 96 96 97 97 97
34 49 75 94 94 74 97 81 86 89 90 95 96 99 100 99 100 98 100 99 100 100 99 100 98 99 98 96 97 100 100 100 100 100 100 100 99 97 97 97 97 97 97 97 97 98 96 94 96 98 99 99 98 96
30 33 51 67 60 81 93 96 95 95 96 100 100 99 100 98 99 100 100 99 99 98 99 97 97 100 96 97 100 100 100 100 100 99 99 99 97 96 97 97 97 96 98 97 96 95 96 97 99 99 97 96 95 94
90 85 85 83 95 95 94 96 98 96 95 96 96 97 99 100 96 97 99 99 98 98 98 97 96 94 95 100 100 100 98 99 99 98 99 98 97 97 98 98 98 98 96 96 95 95 95 95 96 96 96 94 92 92
96 94 94 95 95 95 96 96 97 96 95 96 96 96 96 96 96 96 97 98 97 97 96 94 95 100 100 100 98 97 97 96 97 97 97 97 97 97 96 96 95 96 96 95 95 96 95 94 94 92 90 89 88 88
97 96 96 96 96 96 95 95 96 96 96 95 96 96 96 96 97 97 97 97 97 96 92 96 98 99 99 99 97 97 97 97 97 98 97 94 95 96 96 96 96 95 94 94 93 91 89 87 85 83 83 81 80 81
91 96 98 97 96 95 96 98 96 96 96 96 97 97 98 98 98 98 100 99 97 98 97 99 99 99 99 99 98 98 97 97 97 97 96 96 95 95 96 95 91 88 85 83 81 83 85 86 84 82 80 78 75 70
26 41 74 89 90 96 98 96 95 95 96 96 96 95 95 95 95 96 93 98 97 98 100 100 100 99 97 96 97 96 96 97 96 96 96 96 95 93 91 90 86 84 86 88 89 89 85 80 74 65 50 30 16 12
10 24 47 72 84 89 93 92 91 91 98 95 94 95 94 93 97 94 94 96 96 96 96 96 95 97 98 97 96 96 96 97 96 95 93 93 94 94 94 95 94 93 90 84 76 67 52 31 17 13 12 14 17 19
12 18 31 47 68 80 88 91 88 88 90 91 88 92 94 93 92 95 96 96 97 97 97 97 97 96 96 96 95 96 95 95 95 96 95 95 96 97 93 87 79 71 60 40 20 15 13 11 13 16 16 14 14 16
8 9 18 31 50 70 72 82 86 89 93 88 88 91 92 91 91 94 97 96 97 97 97 97 97 97 97 96 96 96 96 96 96 96 96 92 83 75 67 53 32 19 15 13 11 12 15 15 12 12 12 14 15 16
9 16 18 25 41 55 76 87 88 92 91 87 88 91 88 89 88 94 96 96 96 97 97 97 97 97 97 96 96 96 96 96 96 87 79 69 49 29 21 17 14 12 11 15 16 13 12 12 13 13 14 15 16 17
32 50 46 50 72 76 80 91 96 95 91 90 92 90 90 90 88 92 96 98 97 98 97 97 96 96 97 97 97 97 94 82 74 57 35 25 20 17 14 11 12 17 18 14 12 12 13 13 14 15 16 17 18 20
47 46 46 73 87 95 96 93 90 92 92 94 96 94 91 89 92 96 99 98 98 98 98 98 98 98 98 97 95 86 73 46 34 26 21 18 14 12 13 15 19 17 13 13 13 14 14 16 17 18 19 21 22 24
57 55 50 50 44 57 62 61 67 74 82 89 88 81 80 82 98 100 100 100 99 98 98 98 98 99 99 94 75 48 37 29 24 18 14 12 12 16 19 22 18 14 14 15 15 16 17 18 18 20 21 22 25 28
71 71 63 60 68 79 78 75 73 70 67 65 69 77 78 88 100 100 99 99 98 99 99 100 100 100 81 54 44 35 27 19 15 11 10 15 21 22 24 23 18 17 18 18 18 18 19 20 21 23 24 27 30 33
37 47 47 44 56 61 63 70 78 82 83 88 93 100 100 100 100 99 99 99 100 100 100 99 84 61 53 42 33 22 15 11 9 12 21 24 24 26 28 25 21 20 21 20 20 20 22 24 27 29 30 32 34 36
19 21 22 23 26 30 34 36 40 52 65 85 99 100 100 100 100 100 100 100 99 94 74 63 58 48 38 26 16 11 10 12 21 26 26 25 28 31 30 27 24 23 22 21 22 26 30 33 34 34 34 34 35 38

GFSWCAN_700_rhum_075.txt.gz
RH
98 95 88 88 91 91 85 74 65 75 90 93 96 96 73 96 96 97 92 94 93 98 95 96 89 97 98 87 82 74 90 96 82 86 86 68 40 36 31 29 37 87 81 78 74 73 75 42 41 42 32 41 46 43
99 74 87 92 89 79 60 55 61 56 76 92 96 80 69 97 96 97 97 96 94 94 94 90 80 89 98 68 82 80 61 79 81 85 85 72 51 49 45 38 32 57 76 71 63 62 57 49 41 42 42 40 50 43
99 85 95 93 89 97 74 80 91 78 78 87 97 62 86 97 97 95 95 96 97 96 95 88 77 72 65 77 86 96 92 72 79 71 77 77 71 56 63 52 39 39 40 44 47 55 61 61 48 45 43 43 44 44
90 87 97 91 91 92 85 82 78 45 70 94 96 60 81 97 96 96 94 96 94 89 99 100 80 74 76 72 91 93 98 97 89 91 82 78 64 41 56 46 42 44 44 49 47 46 47 58 56 47 43 45 51 53
91 74 79 74 96 97 90 71 77 90 96 98 93 75 96 97 98 98 97 96 96 89 93 86 89 72 76 71 88 91 88 87 94 96 80 84 67 45 57 62 54 50 47 52 65 29 43 50 52 44 44 44 46 51
90 88 73 74 95 97 96 96 97 97 96 95 86 79 97 96 94 90 96 96 97 95 94 70 73 76 63 71 93 95 97 94 96 89 81 85 63 53 60 61 54 44 47 62 60 64 64 66 62 60 56 57 59 54
96 95 95 80 71 85 93 95 95 96 91 76 90 97 96 90 94 98 97 83 84 95 99 77 72 84 60 69 86 95 96 90 94 90 90 87 70 71 74 69 37 44 51 55 66 52 50 56 66 63 62 58 57 55
96 96 94 94 92 90 88 85 79 76 76 88 94 93 98 98 97 97 91 79 90 99 94 78 84 91 60 66 74 74 88 92 98 95 94 97 93 82 87 65 26 54 71 72 72 69 73 72 69 66 62 59 56 56
96 97 97 97 97 97 96 97 96 94 95 97 96 95 94 97 97 96 95 85 84 99 81 75 86 95 97 90 77 70 99 99 98 98 95 84 76 76 80 45 73 79 74 73 70 72 63 60 66 64 60 65 60 56
94 94 92 91 94 94 96 97 96 93 92 94 98 97 97 96 97 93 84 77 72 91 94 88 83 93 95 97 100 100 96 94 93 90 93 99 100 92 80 84 76 87 76 69 69 70 70 71 76 75 72 70 66 77
94 92 90 86 80 78 82 88 95 97 97 95 92 92 90 96 98 92 98 92 95 89 82 75 79 87 92 95 98 93 89 98 93 87 91 86 96 98 98 85 89 86 86 83 82 82 84 85 86 87 89 84 83 90
88 91 93 92 91 93 95 95 94 91 81 76 72 80 87 97 94 83 83 83 71 66 64 56 62 76 86 93 96 98 94 90 94 83 86 86 85 88 92 81 69 74 80 77 63 71 83 86 90 96 99 98 98 92
68 68 67 73 85 89 85 91 96 81 74 79 75 97 95 90 77 90 92 62 82 58 55 59 69 96 92 90 97 95 98 98 98 98 100 98 89 80 77 68 62 64 69 71 72 92 95 93 94 98 99 99 97 100
77 61 68 78 84 81 76 90 64 92 100 93 90 84 77 57 64 81 74 51 55 51 56 78 90 94 95 98 97 98 99 98 100 98 99 100 98 95 96 91 86 89 90 96 100 100 98 99 99 99 99 99 99 95
61 69 91 94 89 92 95 88 96 83 74 76 64 55 54 60 77 97 100 90 54 65 67 84 98 98 98 97 99 90 95 97 96 97 97 99 100 99 100 99 99 99 99 99 98 98 99 99 99 99 95 98 100 99
72 77 85 96 98 98 89 91 96 97 86 65 60 65 82 78 93 100 100 88 65 92 78 93 99 97 98 97 96 97 97 96 97 97 97 98 98 98 98 98 98 98 98 98 99 99 98 98 98 97 95 95 96 96
100 82 74 97 98 87 100 92 95 89 62 66 82 49 59 91 100 100 100 100 99 100 100 99 100 97 99 96 96 96 97 96 98 98 99 99 99 99 100 100 100 99 98 98 97 96 96 95 95 95 95 95 96 95
52 71 87 86 88 95 93 82 78 71 74 66 80 86 93 98 95 94 98 98 100 99 98 96 97 98 96 96 96 97 99 99 99 98 98 97 97 97 98 98 96 96 97 96 96 93 92 93 94 95 94 94 95 94
30 40 50 58 66 76 92 92 89 93 92 93 95 96 93 94 92 96 99 100 99 99 98 97 96 96 97 96 97 97 96 96 96 97 97 97 97 97 97 97 96 97 97 97 95 93 92 91 90 90 89 87 86 86
93 90 92 90 93 95 96 95 96 95 94 94 96 96 97 96 96 100 100 98 97 98 97 96 96 96 96 97 96 97 97 98 97 96 95 95 98 97 97 97 97 96 95 91 90 89 88 87 87 86 85 84 81 79
96 96 96 96 95 94 96 95 95 96 96 95 96 96 96 96 96 96 97 97 98 97 96 95 96 95 96 96 95 95 95 97 95 97 97 96 97 97 96 96 96 94 94 91 90 87 84 82 80 79 76 74 72 69
96 96 96 95 95 95 95 96 95 95 95 95 96 96 96 96 96 96 96 97 96 95 96 96 96 96 96 96 96 98 98 97 97 96 96 96 94 95 96 95 95 92 86 83 81 79 79 77 74 69 61 49 32 17
69 90 95 92 94 96 96 96 95 95 95 95 95 95 96 96 96 96 95 96 96 96 97 97 97 96 97 97 97 97 97 98 97 96 96 96 95 95 96 95 90 86 82 80 78 74 67 57 41 22 13 11 10 9
34 43 60 78 87 91 96 94 94 96 95 95 95 94 94 96 97 96 97 97 97 96 96 96 96 97 97 95 96 96 96 97 97 96 95 96 96 95 95 94 89 84 77 67 54 38 18 12 11 10 9 9 8 9
13 19 29 43 57 75 86 89 86 89 91 88 86 91 93 89 86 93 96 97 96 96 96 97 97 97 97 97 97 96 96 97 97 97 96 96 96 96 90 80 69 59 40 18 13 12 10 10 10 9 9 9 10 10
8 9 16 24 36 50 53 64 77 82 85 83 86 90 85 85 83 95 97 97 98 97 97 97 97 97 97 97 96 96 96 96 96 96 96 95 89 74 63 46 25 15 13 12 10 10 10 9 9 10 10 11 11 12
7 15 17 22 31 37 52 64 71 78 81 81 84 87 85 82 85 94 98 99 98 98 97 97 97 97 97 96 96 96 96 96 96 96 90 73 58 36 21 15 13 12 11 12 12 10 10 10 11 11 12 13 14 15
18 26 36 41 56 59 68 76 83 86 86 85 88 87 86 84 82 90 95 99 98 98 97 97 97 96 97 97 97 97 97 96 95 79 54 33 21 17 15 13 11 13 16 13 11 11 12 12 12 13 13 15 16 18
33 35 42 54 66 78 91 91 90 92 94 94 94 93 91 88 88 95 100 100 99 99 98 98 97 97 97 97 97 97 96 83 48 31 22 19 16 13 13 13 17 18 14 12 13 13 14 13 14 15 17 19 21 22
42 40 36 36 39 50 56 59 63 73 86 94 97 95 94 94 97 98 99 99 99 99 99 99 98 98 98 98 97 91 59 37 27 21 17 14 12 14 16 19 21 18 14 14 15 15 14 15 18 22 24 25 26 26
54 57 50 50 57 69 69 66 65 63 60 59 59 71 87 97 100 100 99 98 98 98 98 98 98 98 98 97 78 48 34 24 18 14 11 11 15 19 20 23 23 19 15 16 16 16 17 23 28 29 29 27 25 24
22 26 25 25 37 47 46 61 74 78 78 81 85 92 100 100 100 99 99 99 98 98 98 98 98 98 89 64 46 33 22 15 11 10 13 19 22 22 24 26 25 21 18 19 18 20 27 32 32 30 26 22 21 22
18 18 18 18 20 21 25 25 32 47 72 90 95 96 100 100 100 100 100 100 100 100 100 99 92 74 61 45 29 18 12 10 12 19 24 24 24 26 28 28 26 23 21 19 24 31 34 32 27 22 19 19 22 25

GFSWCAN_700_rhum_078.txt.gz
RH
88 96 96 98 96 86 86 96 92 96 97 98 98 98 100 97 97 100 96 95 95 95 96 96 92 88 97 91 76 71 74 93 91 87 84 90 94 56 42 30 40 51 95 81 85 73 68 48 40 37 38 34 34 43
99 98 97 95 95 89 94 96 94 96 96 94 97 98 97 97 99 95 97 93 96 98 95 91 89 94 100 88 82 79 63 61 97 95 92 82 71 53 43 35 33 63 46 78 68 61 61 51 51 46 44 40 44 53
92 90 95 72 85 97 96 90 94 88 94 86 90 96 98 96 100 97 95 90 98 97 96 97 86 90 76 84 80 92 65 80 89 84 84 81 75 44 53 40 32 31 53 63 61 61 66 76 66 56 54 45 46 44
96 85 65 71 96 97 98 96 89 64 56 62 85 97 96 100 98 98 95 96 97 94 96 92 85 91 68 64 76 69 77 82 92 86 94 96 76 52 51 59 46 41 36 47 53 54 48 47 48 61 58 56 50 48
86 66 69 96 89 67 85 87 73 68 72 74 96 96 99 95 96 96 96 95 89 94 92 90 84 87 65 64 72 69 65 66 92 96 76 74 67 69 57 51 46 43 42 44 50 52 46 43 28 65 60 50 43 48
86 65 88 97 90 70 74 70 76 85 88 92 97 100 90 97 97 98 96 98 97 96 99 98 96 100 99 69 67 64 81 70 84 98 97 98 81 74 64 58 53 52 44 42 49 55 60 48 42 55 57 64 68 61
70 60 90 97 98 62 46 67 82 99 96 96 80 92 97 96 97 94 92 73 89 89 84 81 78 70 70 68 53 54 62 78 94 97 98 88 79 79 73 62 55 56 48 37 43 45 51 60 66 60 66 63 62 63
92 72 78 98 96 97 97 96 96 96 96 90 92 97 97 96 96 97 96 87 95 100 99 91 75 81 80 99 87 53 56 64 92 97 95 83 84 70 71 53 42 35 41 56 64 63 51 58 62 56 58 68 68 67
96 96 97 76 95 97 98 97 94 85 76 88 91 96 94 98 97 95 96 96 95 97 96 83 76 71 91 96 98 97 70 78 75 98 93 82 71 84 83 82 68 55 42 24 56 75 72 73 66 74 68 70 71 68
96 96 96 99 90 71 82 87 81 78 80 85 94 98 96 96 97 95 96 92 100 97 92 78 68 61 83 97 99 93 95 94 98 85 66 94 90 89 96 87 84 77 82 78 70 72 70 67 72 61 64 74 74 74
95 96 96 96 96 97 96 97 98 97 97 98 96 95 98 96 95 93 92 92 90 96 86 76 68 60 63 82 88 99 94 88 88 80 92 96 91 86 98 94 90 89 84 90 82 78 76 82 87 85 85 85 84 88
94 95 96 96 96 97 97 96 96 95 93 80 74 84 93 93 80 90 93 97 86 73 62 56 64 75 87 92 96 98 87 81 72 71 88 82 85 92 95 94 91 90 87 83 83 84 82 76 75 76 82 86 93 97
95 95 94 84 78 83 86 93 97 95 88 74 73 93 95 87 84 80 70 83 78 70 76 80 96 96 96 96 96 88 73 72 89 90 78 70 68 84 85 90 98 95 75 79 84 82 82 78 70 92 92 87 100 99
88 98 99 97 96 95 94 92 92 84 79 80 80 82 84 84 100 98 93 69 51 76 88 88 96 97 96 94 97 96 78 66 96 100 99 77 72 84 88 86 84 74 72 67 68 75 80 82 81 93 97 99 99 98
76 77 82 91 89 81 84 78 89 86 78 72 66 93 100 100 93 87 89 68 58 73 93 97 96 97 97 97 98 100 98 89 97 99 100 100 100 94 95 100 96 83 84 89 95 97 99 100 100 99 98 97 97 97
84 87 94 92 95 83 92 90 78 72 69 65 64 86 98 98 86 76 92 92 63 61 93 96 97 97 96 96 96 97 98 99 96 99 100 100 100 100 99 100 100 100 99 99 98 98 98 98 97 97 97 96 95 94
93 99 86 83 88 83 88 83 81 74 71 73 90 88 80 70 81 100 90 70 51 74 100 99 97 97 97 96 96 98 99 99 96 96 97 97 97 97 98 98 98 97 97 97 97 96 96 96 96 96 95 94 95 94
74 82 81 80 90 90 90 87 83 74 58 72 91 84 72 93 99 91 80 73 79 93 100 99 99 96 96 97 97 97 96 96 96 96 96 96 97 97 97 97 97 97 96 96 96 96 96 95 93 90 89 90 92 94
38 52 63 69 71 81 90 88 78 78 83 78 83 94 95 96 97 98 97 96 96 100 100 96 96 95 96 96 95 95 95 96 96 96 96 96 96 97 97 97 96 96 96 96 95 92 88 86 87 86 87 86 84 80
83 75 68 75 86 86 87 92 95 95 95 96 96 96 97 95 98 97 99 100 100 96 97 96 96 95 96 96 96 96 96 97 97 96 96 97 98 98 97 98 98 97 96 92 89 85 85 87 86 83 77 70 64 58
96 96 95 96 97 96 93 94 96 99 98 98 98 99 100 100 97 94 95 97 97 98 97 97 96 96 96 96 96 96 96 97 96 97 96 96 96 96 96 97 96 93 92 88 87 84 79 74 69 65 60 52 39 20
96 96 96 95 94 92 95 98 97 98 99 100 99 97 95 98 100 98 98 98 95 97 96 96 96 96 96 96 96 96 96 97 97 96 96 96 96 96 97 95 94 92 86 80 74 70 68 63 54 40 21 11 10 8
83 87 91 92 89 94 96 95 94 94 94 95 95 95 95 94 95 96 95 97 97 96 96 96 96 96 96 96 96 96 96 96 96 96 96 96 97 97 97 95 91 86 80 75 70 60 46 26 12 10 9 8 7 6
46 51 66 79 88 90 94 93 95 95 95 94 95 95 95 95 96 96 96 96 96 96 95 95 96 96 96 96 96 96 96 97 97 97 97 97 97 96 95 94 88 81 70 56 39 17 11 10 9 8 7 7 7 7
17 23 34 48 64 70 78 86 85 86 90 89 89 92 96 95 91 93 96 97 97 96 96 97 96 97 97 97 96 96 96 97 97 96 96 96 96 96 94 85 67 54 33 14 11 11 9 9 8 7 8 8 8 9
8 11 20 23 31 41 46 64 77 77 77 78 84 88 85 80 86 98 98 98 98 98 96 96 97 97 97 96 96 96 96 97 97 97 97 96 96 94 79 52 28 15 12 11 10 10 9 8 8 9 9 9 9 10
8 17 18 19 22 27 41 57 58 68 70 76 82 86 85 83 87 95 99 99 100 100 99 97 97 97 97 96 96 96 96 96 96 96 96 95 93 61 29 17 14 13 11 11 11 10 9 9 10 10 9 10 14 16
16 30 36 39 50 55 64 70 75 78 82 84 87 86 85 85 80 88 97 100 100 100 100 99 98 98 98 97 96 96 97 97 97 97 96 79 39 20 16 14 12 11 12 13 12 10 10 11 11 11 15 19 20 20
30 34 39 42 45 56 71 78 85 89 91 92 92 92 93 91 88 94 100 100 99 99 98 98 98 98 98 98 98 98 97 97 96 91 51 24 18 15 14 13 12 14 17 15 12 12 13 12 13 20 24 24 22 18
33 32 30 32 28 42 50 50 54 55 58 72 83 86 92 92 94 97 100 100 99 98 98 98 98 97 97 97 97 97 96 96 85 46 21 17 14 13 12 14 16 20 20 15 13 14 14 15 23 27 26 23 18 15
49 48 44 46 54 64 63 63 66 65 63 63 59 64 82 97 100 100 100 100 99 98 98 98 98 98 98 98 98 97 94 66 32 20 16 13 12 13 17 19 22 24 22 16 16 16 17 26 30 28 23 18 15 16
16 15 15 13 18 21 19 33 44 58 74 81 83 90 97 100 100 100 100 100 100 100 100 99 99 99 99 99 98 78 41 25 18 14 12 12 16 20 22 24 26 26 22 20 17 18 27 31 30 23 18 16 16 19
14 14 14 14 16 17 19 22 25 39 59 81 90 94 96 99 100 100 100 100 100 100 100 100 100 100 97 77 48 32 21 15 12 12 16 21 23 23 27 29 28 26 23 19 20 28 32 32 25 17 16 18 21 24

GFSWCAN_700_rhum_084.txt.gz
RH
75 71 66 64 67 77 87 92 94 94 95 95 93 90 95 94 95 96 97 97 97 95 99 90 82 79 74 83 93 96 85 75 66 80 83 85 76 65 78 76 57 97 89 94 88 96 92 58 60 57 53 46 40 42
67 67 82 90 91 91 95 99 98 98 97 96 96 98 92 94 99 100 94 88 98 97 91 95 77 74 58 66 78 90 96 85 70 78 80 72 74 70 58 73 54 57 80 59 57 52 51 53 67 67 59 50 44 40
90 88 87 93 99 97 96 96 97 98 98 97 96 96 96 96 96 94 100 98 86 87 71 92 82 59 73 76 91 94 81 93 95 76 83 81 73 72 77 66 56 50 49 59 52 39 46 53 64 73 70 60 46 42
91 92 89 74 87 96 98 98 97 96 87 84 97 96 97 96 96 97 96 96 89 93 99 77 94 76 68 67 67 68 76 87 92 97 83 85 79 67 58 50 63 50 44 48 54 44 41 58 59 63 63 58 57 56
92 90 94 96 69 52 56 64 72 78 96 96 97 96 97 96 97 97 97 96 88 88 81 62 87 84 85 81 88 94 92 90 90 99 89 86 86 74 75 51 57 48 43 42 32 34 44 48 57 58 44 41 50 59
81 96 86 59 48 53 70 76 99 92 97 96 94 85 93 92 97 97 97 96 90 75 97 96 81 78 81 79 75 88 96 98 94 92 97 95 83 84 86 74 63 58 52 48 49 55 55 54 65 56 55 59 56 55
97 90 75 60 42 49 69 78 95 97 96 94 88 85 86 97 96 86 81 65 72 90 98 97 94 70 82 93 93 97 94 97 95 97 93 89 84 92 92 94 70 62 60 53 44 51 57 52 54 58 64 64 64 70
97 89 78 73 54 40 62 83 89 88 92 94 95 96 96 98 100 100 88 66 82 99 95 98 96 84 91 96 97 96 85 72 65 69 68 78 68 65 77 60 54 65 66 68 66 58 51 53 50 48 48 48 50 50
97 96 95 92 82 69 72 78 87 93 95 97 97 97 97 97 96 89 89 80 86 96 96 98 77 80 87 90 83 75 68 66 65 68 70 58 60 65 49 57 53 43 51 58 64 61 56 56 54 58 57 52 53 55
88 86 87 89 85 86 89 88 97 94 93 94 94 97 98 98 88 96 98 98 98 97 95 77 68 61 72 79 86 82 84 83 89 81 63 70 48 32 58 54 38 68 55 45 68 62 53 54 60 56 60 66 68 75
90 84 93 95 91 93 94 92 86 90 94 95 95 97 99 95 96 97 97 96 97 95 82 72 62 52 74 68 59 76 98 96 96 80 71 86 75 59 52 70 71 94 78 64 60 55 48 40 37 47 52 65 77 83
93 95 96 96 96 96 94 94 96 87 76 77 87 87 95 95 95 93 94 86 80 79 76 76 67 66 59 63 72 95 92 87 74 78 77 71 72 42 41 54 92 98 86 64 47 43 58 76 77 77 80 84 92 93
98 97 96 97 97 96 97 96 96 96 96 84 97 93 92 77 77 74 69 60 59 58 52 49 61 63 59 62 74 76 90 80 88 92 86 76 54 49 52 66 80 97 81 97 93 89 92 94 98 94 88 88 89 89
96 90 94 94 96 94 96 96 96 95 87 75 61 68 86 100 92 72 59 50 73 79 56 50 53 59 67 70 83 85 82 97 70 74 78 70 74 86 93 87 85 93 100 97 98 98 92 94 96 94 96 98 99 99
97 97 97 95 96 97 96 94 95 73 58 64 77 91 97 100 100 86 86 85 100 99 68 66 70 72 79 89 95 96 98 97 94 91 86 66 85 89 66 52 70 90 99 99 100 100 98 97 95 99 100 100 100 100
85 88 96 93 93 91 84 75 71 60 50 64 94 98 95 98 99 99 100 100 100 94 90 94 96 96 96 96 97 96 96 95 98 86 91 96 93 77 80 98 100 100 100 100 100 100 97 99 100 100 100 99 98 96
76 79 83 85 84 82 79 69 65 56 64 82 98 94 96 96 95 100 94 80 91 94 97 96 96 96 96 96 97 96 95 95 97 96 100 100 93 94 100 100 100 100 99 99 100 99 100 100 99 97 96 96 96 96
82 68 67 71 71 69 74 69 60 62 83 96 100 96 100 97 95 96 99 99 96 95 95 96 96 96 96 95 95 97 100 100 100 100 100 100 100 100 100 100 100 97 97 97 98 97 97 97 96 96 96 95 95 94
79 75 69 73 74 69 66 64 58 63 88 97 97 100 100 98 98 97 96 95 95 97 97 96 95 95 95 95 95 95 94 96 96 98 100 99 99 98 98 100 99 96 96 96 96 97 96 95 95 95 95 93 82 63
54 53 54 58 60 64 67 79 76 83 95 93 100 100 98 96 97 98 97 100 96 96 96 95 96 96 94 96 97 96 96 96 96 95 95 95 96 96 96 96 96 96 96 96 96 95 95 95 94 93 71 51 38 20
85 95 95 89 84 78 84 93 95 98 100 98 96 98 94 96 96 95 96 97 96 96 95 96 96 96 96 96 96 96 96 96 96 96 95 95 96 96 96 96 96 96 96 95 95 95 95 91 68 48 31 13 8 7
95 95 99 99 88 89 96 97 97 98 97 98 96 96 97 97 97 95 99 97 95 98 96 97 97 96 96 96 96 96 96 96 96 96 96 96 95 95 96 95 96 96 96 95 94 88 67 47 26 11 9 8 7 6
95 96 97 95 90 94 98 98 95 98 97 97 98 97 97 97 95 96 93 97 97 97 97 97 98 97 96 96 96 96 96 97 96 96 96 96 96 96 96 95 96 96 95 87 68 49 27 11 9 8 8 7 6 5
58 66 75 82 86 91 95 95 95 95 95 95 96 95 94 96 97 96 96 98 98 98 98 97 97 97 96 96 96 96 96 97 97 96 96 96 96 95 96 96 96 95 80 54 30 14 10 9 8 8 7 6 6 6
20 27 43 62 79 85 88 93 96 98 100 98 98 100 100 99 96 98 98 97 97 97 96 97 96 96 96 96 96 96 96 96 97 96 95 97 97 97 96 96 95 75 42 20 12 11 10 9 8 7 7 7 7 7
16 25 29 35 43 53 63 62 68 74 77 79 90 97 92 89 92 96 98 98 98 98 97 97 97 97 96 97 97 96 96 96 97 97 96 96 96 96 96 96 81 45 23 13 11 10 10 9 9 8 8 8 9 15
23 39 35 38 45 46 50 55 58 62 67 79 82 83 82 82 88 100 100 100 100 99 99 99 98 97 99 97 97 97 96 96 96 98 97 96 96 96 96 90 69 36 17 12 11 11 11 10 10 9 9 11 19 21
25 39 35 34 37 32 40 43 53 71 76 78 80 78 77 75 84 93 95 98 97 98 98 97 98 97 97 97 98 97 97 97 97 97 97 97 97 97 93 68 27 15 13 12 12 13 13 12 11 11 12 19 24 22
18 18 19 19 18 18 23 29 35 42 45 55 67 79 85 89 91 96 99 96 96 96 98 99 98 100 100 100 100 99 99 99 98 97 97 97 96 80 65 31 16 14 12 13 16 17 16 14 13 13 20 27 25 18
30 28 26 25 23 41 46 48 47 42 43 42 43 49 69 88 97 99 99 99 100 100 100 99 100 99 99 99 99 99 98 98 98 98 98 98 81 50 25 15 13 13 15 19 21 21 18 14 14 18 29 29 21 15
14 10 8 9 10 14 17 19 23 26 39 48 54 68 76 88 98 100 100 100 98 99 99 99 99 99 99 99 99 99 99 99 99 98 97 84 48 21 14 13 16 19 21 24 26 24 20 16 18 28 30 26 17 15
11 12 11 11 14 16 16 17 19 19 27 48 56 74 83 92 97 100 100 100 100 100 100 100 100 99 100 100 100 100 99 99 99 98 82 39 16 13 15 19 22 23 26 28 27 24 20 20 29 32 30 20 16 17
14 14 15 16 17 18 20 19 24 33 33 39 60 81 87 92 97 100 100 100 98 100 100 100 100 100 100 100 100 100 99 91 56 23 14 14 16 20 22 24 26 30 30 27 26 23 22 29 33 32 21 16 18 22